[[{"header":{"parameterUnit":"m.s-1","parameterCategory":2,"la1":30.2991,"la2":30.254,"lo1":-89.0895,"lo2":-89.0444,"dy":0.0017,"dx":0.0017,"nx":28,"ny":28,"refTime":"2025-01-15T09:00:00:Z","depth":"0","parameterNumber":2,"parameterNumberName":"U-component_of_CURRENTS"},"data":[0,0,0,0,0,0,0,0,0,0,0,0,0,0,0,0,0,0,0,0,0,0,0,0,0,0,0,0,0,0,0,0,0,0,0,0,0,0,0,0,0,0,0,0,0,0,0,0,0,0,0,0,0,0,0,0,0,0,-0.2873,-0.2873,0,-0.288,-0.288,-0.288,-0.2833,-0.2831,-0.283,-0.2828,-0.2715,-0.2714,-0.2712,0,0,0,0,0,0,0,0,0,0,0,0,0,-0.2836,-0.2836,-0.2873,-0.2873,-0.2873,-0.288,-0.288,-0.288,-0.2833,-0.2831,-0.2829,-0.2828,-0.2716,-0.2714,-0.2712,0,0,0,0,0,0,0,0,0,0,0,0,0,-0.2849,-0.2837,-0.2873,-0.2849,-0.2847,-0.288,-0.288,-0.288,-0.2833,-0.2831,-0.2829,-0.2827,-0.2716,-0.2714,-0.2711,-0.2739,0,0,-0.2704,-0.2703,0,0,0,0,0,0,0,0,-0.2848,-0.285,-0.2853,-0.2851,-0.2849,-0.2852,-0.2825,-0.2827,-0.2834,-0.284,-0.2828,-0.2826,-0.2751,-0.2745,-0.2755,-0.2733,-0.2729,-0.2703,-0.2702,-0.2701,-0.27,0,0,0,0,0,0,0,-0.2847,-0.285,-0.2877,-0.2853,-0.2851,-0.2844,-0.2844,-0.2826,-0.2806,-0.2839,-0.2835,-0.2835,-0.2749,-0.2757,-0.2751,-0.2727,-0.2704,-0.2701,-0.27,-0.2699,-0.2613,-0.2612,0,0,0,0,0,0,-0.2846,-0.2849,-0.2876,-0.2877,-0.2842,-0.2847,-0.2846,-0.2854,-0.2808,-0.28,-0.2837,-0.2833,-0.2763,-0.2754,-0.2747,-0.268,-0.2701,-0.2699,-0.2697,-0.2613,-0.2612,-0.2612,0,0,0,0,0,0,-0.2846,-0.2849,-0.2876,-0.2862,-0.2864,-0.2849,-0.2859,-0.2855,-0.2851,-0.2808,-0.2797,-0.2834,-0.2761,-0.275,-0.2718,-0.2679,-0.2697,-0.2695,-0.2614,-0.2613,-0.2612,-0.2608,0,0,0,0,0,0,-0.2845,-0.2849,-0.2855,-0.2862,-0.2865,-0.2872,-0.2861,-0.2857,-0.2855,-0.2849,-0.2802,-0.2791,-0.2758,-0.2723,-0.2716,-0.2675,-0.2693,-0.2615,-0.2614,-0.2612,-0.2609,-0.2607,-0.2605,0,0,0,0,0,-0.2844,-0.2848,-0.2855,-0.2858,-0.2874,-0.2871,-0.2872,-0.2855,-0.2856,-0.2846,-0.2824,-0.2791,-0.2707,-0.2721,-0.2713,-0.2671,-0.2616,-0.2614,-0.2613,-0.261,-0.2607,-0.2605,0,0,0,0,0,0,-0.2832,-0.2844,-0.2851,-0.286,-0.2859,-0.2862,-0.2857,-0.286,-0.2841,-0.2834,-0.28,-0.2786,-0.2738,-0.2717,-0.2733,-0.2641,-0.2649,-0.2646,-0.265,-0.2647,-0.2645,-0.2637,-0.2691,0,0,0,0,0,-0.2838,-0.284,-0.2852,-0.2856,-0.286,-0.2866,-0.2866,-0.2858,-0.2846,-0.2837,-0.281,-0.2773,-0.2731,-0.27,-0.2668,-0.2633,-0.2622,-0.2595,-0.2593,-0.2591,-0.2579,-0.2563,-0.2559,-0.2606,-0.2606,-0.2606,0,0,-0.283,-0.284,-0.284,-0.2853,-0.2856,-0.2843,-0.2859,-0.2855,-0.283,-0.2827,-0.2787,-0.2773,-0.2725,-0.2674,-0.2649,-0.2646,-0.257,-0.2589,-0.2588,-0.2576,-0.2561,-0.2557,-0.2553,-0.2605,-0.2605,-0.2605,0,0,-0.2803,-0.2833,-0.2818,-0.2822,-0.2826,-0.283,-0.2829,-0.2834,-0.2819,-0.2799,-0.2778,-0.2749,-0.2697,-0.2651,-0.262,-0.2592,-0.2569,-0.2573,-0.2543,-0.2528,-0.2525,-0.2521,-0.2497,-0.2491,-0.2561,-0.2561,-0.2561,0,-0.2786,-0.2779,-0.2811,-0.2799,-0.279,-0.282,-0.2792,-0.2791,-0.2781,-0.2769,-0.2772,-0.2714,-0.2678,-0.2608,-0.2587,-0.2583,-0.2576,-0.2558,-0.2527,-0.2523,-0.2519,-0.2495,-0.2489,-0.2561,-0.2561,-0.2561,-0.2561,0,-0.2748,-0.2739,-0.2732,-0.2723,-0.2724,-0.2708,-0.2714,-0.2712,-0.2715,-0.2712,-0.2672,-0.2651,-0.261,-0.2589,-0.2573,-0.2519,-0.2523,-0.2537,-0.2536,-0.2514,-0.249,-0.2484,-0.256,-0.2561,-0.2561,-0.2561,0,0,-0.2685,-0.2697,-0.2689,-0.2671,-0.2681,-0.2672,-0.2651,-0.2631,-0.2621,-0.2616,-0.259,-0.2532,-0.2552,-0.2519,-0.2506,-0.2486,-0.2452,-0.2496,-0.2495,-0.2476,-0.2415,-0.2346,-0.2332,-0.247,-0.2469,-0.2468,-0.2407,0,-0.2624,-0.2582,-0.261,-0.2559,-0.2529,-0.2567,-0.2547,-0.2546,-0.2552,-0.2544,-0.2534,-0.2508,-0.2514,-0.2502,-0.2483,-0.247,-0.2436,-0.2466,-0.2434,-0.2432,-0.2377,-0.2322,-0.2216,-0.2146,-0.2401,-0.24,-0.2399,0,-0.2545,-0.2532,-0.2475,-0.2468,-0.2464,-0.245,-0.2441,-0.2432,-0.2445,-0.2457,-0.2455,-0.2469,-0.2434,-0.2455,-0.241,-0.2435,-0.2411,-0.2403,-0.2402,-0.2331,-0.235,-0.2208,-0.2125,-0.2104,-0.2389,-0.239,-0.2391,0,-0.2439,-0.2421,-0.2372,-0.2368,-0.2379,-0.2367,-0.2376,-0.2394,-0.2397,-0.2407,-0.2421,-0.2407,-0.2398,-0.2384,-0.2371,-0.2391,-0.2333,-0.236,-0.2268,-0.2263,-0.2158,-0.2146,-0.205,-0.2308,-0.2308,-0.2308,-0.2308,0,-0.2327,-0.2283,-0.2324,-0.2294,-0.2262,-0.2296,-0.2275,-0.2296,-0.2328,-0.2325,-0.237,-0.2364,-0.2382,-0.2365,-0.2355,-0.2284,-0.2315,-0.2237,-0.2232,-0.2153,-0.2141,-0.2108,-0.2135,-0.2306,-0.2306,-0.2307,-0.2307,0,-0.2186,-0.2208,-0.2167,-0.2194,-0.2203,-0.218,-0.2227,-0.2219,-0.2268,-0.2268,-0.2272,-0.2318,-0.2293,-0.23,-0.2269,-0.2241,-0.2148,-0.2161,-0.206,-0.2042,-0.1929,-0.1961,-0.1856,-0.1804,-0.204,-0.2038,-0.2036,0,-0.2097,-0.2062,-0.2098,-0.2091,-0.2099,-0.2096,-0.21,-0.2167,-0.2174,-0.223,-0.2219,-0.222,-0.2195,-0.2138,-0.2088,-0.203,-0.2044,-0.1898,-0.1901,-0.1876,-0.1909,-0.194,-0.1908,-0.1764,-0.176,-0.1757,-0.1754,0,-0.1948,-0.198,-0.1971,-0.1966,-0.1967,-0.1977,-0.1992,-0.2,-0.2072,-0.2088,-0.2098,-0.2089,-0.2039,-0.1936,-0.1867,-0.1827,-0.1838,-0.1827,-0.1825,-0.1685,-0.1688,-0.1652,-0.1862,-0.1726,-0.1728,-0.1731,-0.1732,-0.1733,-0.1855,-0.1831,-0.1844,-0.1827,-0.1839,-0.1836,-0.1802,-0.1846,-0.1852,-0.1851,-0.1926,-0.1883,-0.1821,-0.1708,-0.1659,-0.1535,-0.1617,-0.1492,-0.1532,-0.1567,-0.1503,-0.1639,-0.1488,-0.149,-0.1491,-0.1492,-0.1493,0,-0.1724,-0.1716,-0.17,-0.1686,-0.1652,-0.1703,-0.1708,-0.1663,-0.1631,-0.1672,-0.1662,-0.1624,-0.1502,-0.1463,-0.1347,-0.1272,-0.1252,-0.1248,-0.1271,-0.1253,-0.1373,-0.1345,-0.1128,-0.1128,-0.1128,-0.1128,-0.1128,-0.1128,-0.1653,-0.1597,-0.1593,-0.15,-0.1489,-0.1408,-0.1386,-0.1353,-0.1356,-0.1318,-0.1324,-0.1371,-0.1357,-0.1363,-0.1227,-0.1152,-0.1137,-0.1084,-0.1137,-0.1237,-0.1264,-0.129,-0.1268,-0.1038,-0.1038,-0.0952,-0.0952,-0.0951]},{"header":{"parameterUnit":"m.s-1","parameterCategory":2,"la1":30.2991,"la2":30.254,"lo1":-89.0895,"lo2":-89.0444,"dy":0.0017,"dx":0.0017,"nx":28,"ny":28,"refTime":"2025-01-15T09:00:00:Z","depth":"0","parameterNumber":3,"parameterNumberName":"V-component_of_CURRENTS"},"data":[0,0,0,0,0,0,0,0,0,0,0,0,0,0,0,0,0,0,0,0,0,0,0,0,0,0,0,0,0,0,0,0,0,0,0,0,0,0,0,0,0,0,0,0,0,0,0,0,0,0,0,0,0,0,0,0,0,0,-0.0696,-0.0695,0,-0.0583,-0.0582,-0.058,-0.0529,-0.0529,-0.0529,-0.0529,-0.0381,-0.0377,-0.0373,0,0,0,0,0,0,0,0,0,0,0,0,0,-0.0819,-0.0818,-0.0696,-0.0695,-0.0693,-0.0583,-0.0581,-0.058,-0.0529,-0.0529,-0.0529,-0.0529,-0.0382,-0.0378,-0.0373,0,0,0,0,0,0,0,0,0,0,0,0,0,-0.0744,-0.0817,-0.0697,-0.0653,-0.0648,-0.0583,-0.0581,-0.058,-0.0529,-0.0529,-0.0529,-0.0529,-0.0384,-0.0378,-0.0372,-0.0337,0,0,-0.0354,-0.0352,0,0,0,0,0,0,0,0,-0.0748,-0.0739,-0.0661,-0.0656,-0.065,-0.0569,-0.057,-0.0496,-0.0529,-0.0576,-0.0529,-0.0529,-0.0439,-0.0429,-0.0411,-0.033,-0.0323,-0.0354,-0.035,-0.0348,-0.0346,0,0,0,0,0,0,0,-0.0753,-0.0744,-0.0653,-0.066,-0.0653,-0.0622,-0.0612,-0.0556,-0.051,-0.0572,-0.0568,-0.0552,-0.0436,-0.0416,-0.0407,-0.0321,-0.0354,-0.0349,-0.0345,-0.0343,-0.0176,-0.0176,0,0,0,0,0,0,-0.0766,-0.0749,-0.0657,-0.065,-0.0698,-0.062,-0.0609,-0.0596,-0.0511,-0.0498,-0.0552,-0.055,-0.0426,-0.0414,-0.0401,-0.0341,-0.0348,-0.0342,-0.0339,-0.0177,-0.0176,-0.0175,0,0,0,0,0,0,-0.0769,-0.0759,-0.0661,-0.0695,-0.068,-0.0618,-0.0604,-0.0594,-0.057,-0.0496,-0.0483,-0.0539,-0.0426,-0.0409,-0.0344,-0.0336,-0.0339,-0.0334,-0.0178,-0.0177,-0.0176,-0.0229,0,0,0,0,0,0,-0.0774,-0.0761,-0.076,-0.0696,-0.0679,-0.0622,-0.0604,-0.0592,-0.056,-0.0556,-0.048,-0.0466,-0.0425,-0.0353,-0.0338,-0.0327,-0.033,-0.018,-0.0178,-0.0176,-0.0229,-0.023,-0.0231,0,0,0,0,0,-0.0778,-0.0774,-0.076,-0.0749,-0.0678,-0.0622,-0.061,-0.0567,-0.056,-0.0547,-0.0493,-0.0469,-0.0332,-0.0347,-0.033,-0.0318,-0.018,-0.0178,-0.0176,-0.0228,-0.023,-0.0231,0,0,0,0,0,0,-0.0822,-0.0766,-0.075,-0.0728,-0.0679,-0.0612,-0.0597,-0.0568,-0.0517,-0.0516,-0.0453,-0.0434,-0.0376,-0.0335,-0.0354,-0.0264,-0.0253,-0.0248,-0.0299,-0.0299,-0.0301,-0.0322,-0.0325,0,0,0,0,0,-0.0832,-0.0818,-0.0755,-0.0738,-0.0717,-0.0659,-0.0633,-0.0603,-0.0548,-0.0526,-0.0471,-0.0412,-0.0354,-0.0319,-0.0264,-0.0211,-0.0181,-0.0192,-0.0193,-0.0194,-0.0199,-0.0156,-0.0155,-0.0169,-0.0169,-0.0169,0,0,-0.0843,-0.0812,-0.0803,-0.0747,-0.071,-0.0676,-0.0644,-0.0606,-0.0576,-0.0516,-0.0464,-0.0413,-0.034,-0.0284,-0.0254,-0.0249,-0.0172,-0.0192,-0.0194,-0.0197,-0.0154,-0.0153,-0.0152,-0.0167,-0.0168,-0.0168,0,0,-0.0855,-0.0833,-0.0822,-0.0786,-0.0732,-0.0693,-0.0684,-0.0616,-0.0586,-0.0528,-0.048,-0.0427,-0.0335,-0.0285,-0.0247,-0.0219,-0.0182,-0.0199,-0.0219,-0.0178,-0.0177,-0.0176,-0.0132,-0.0126,-0.0198,-0.0198,-0.0198,0,-0.087,-0.0846,-0.0809,-0.0786,-0.0758,-0.0703,-0.0679,-0.0638,-0.0557,-0.0531,-0.0518,-0.0393,-0.0338,-0.0266,-0.0258,-0.0224,-0.0194,-0.0224,-0.0182,-0.0181,-0.0179,-0.0134,-0.0127,-0.0201,-0.02,-0.02,-0.02,0,-0.087,-0.0849,-0.0839,-0.0796,-0.0764,-0.0734,-0.0673,-0.064,-0.0602,-0.0556,-0.0486,-0.0412,-0.0341,-0.0313,-0.0275,-0.0226,-0.0206,-0.0194,-0.0188,-0.0181,-0.0133,-0.0125,-0.0204,-0.0203,-0.0202,-0.0202,0,0,-0.0894,-0.0849,-0.0844,-0.0829,-0.0766,-0.074,-0.0697,-0.0636,-0.0615,-0.0544,-0.0505,-0.0411,-0.0382,-0.0337,-0.0283,-0.0245,-0.0204,-0.0218,-0.0215,-0.0191,-0.0109,-0.0079,-0.0068,-0.0188,-0.0187,-0.0186,-0.008,0,-0.0898,-0.0875,-0.0845,-0.0816,-0.0793,-0.0743,-0.0712,-0.0657,-0.0607,-0.0558,-0.0484,-0.0427,-0.0386,-0.0358,-0.0313,-0.0231,-0.0186,-0.0233,-0.0105,-0.0101,-0.0089,-0.0059,-0.0035,0.0063,-0.0073,-0.0071,-0.007,0,-0.0895,-0.0883,-0.0863,-0.0827,-0.0815,-0.0796,-0.0747,-0.071,-0.0634,-0.0597,-0.0534,-0.0474,-0.0394,-0.0372,-0.0238,-0.027,-0.0195,-0.0136,-0.0131,-0.0081,-0.0057,0.0036,0.0083,0.0195,-0.0058,-0.0059,-0.006,0,-0.0921,-0.0888,-0.0879,-0.0864,-0.082,-0.081,-0.0786,-0.0724,-0.0699,-0.0624,-0.06,-0.0499,-0.0449,-0.0348,-0.022,-0.0229,-0.0078,-0.0073,0.0029,0.0032,0.0089,0.0096,0.0245,0.0017,0.0017,0.0017,0.0017,0,-0.0921,-0.0911,-0.0897,-0.089,-0.0894,-0.0849,-0.0839,-0.0802,-0.075,-0.0723,-0.0629,-0.0582,-0.0444,-0.0336,-0.0226,-0.0069,-0.0077,0.0034,0.0064,0.0074,0.0077,0.0207,0.0247,0.0021,0.002,0.0019,0.0019,0,-0.0932,-0.0918,-0.0918,-0.0902,-0.0903,-0.0908,-0.0889,-0.088,-0.0824,-0.0786,-0.0765,-0.0639,-0.0495,-0.0344,-0.0171,-0.0075,0.0144,0.0126,0.0131,0.0159,0.0343,0.0378,0.0555,0.0616,0.0251,0.0253,0.0254,0,-0.093,-0.0931,-0.0948,-0.0965,-0.0961,-0.0965,-0.0969,-0.0925,-0.0909,-0.0815,-0.0797,-0.0654,-0.0536,-0.0264,-0.0069,0.0141,0.0224,0.0278,0.0264,0.0368,0.043,0.0453,0.0492,0.0327,0.0329,0.033,0.0331,0,-0.0936,-0.0952,-0.0964,-0.1006,-0.1025,-0.1041,-0.1038,-0.1038,-0.0976,-0.0926,-0.0829,-0.0728,-0.0457,-0.0207,0.0061,0.0189,0.036,0.0312,0.0426,0.051,0.054,0.0607,0.0242,0.0344,0.0342,0.0341,0.0341,0.034,-0.0953,-0.098,-0.1009,-0.1045,-0.1077,-0.1103,-0.1106,-0.1087,-0.1056,-0.0959,-0.0858,-0.0674,-0.0326,0.0061,0.0207,0.0511,0.0479,0.0597,0.0636,0.0653,0.0703,0.0362,0.0488,0.0487,0.0487,0.0487,0.0486,0,-0.0963,-0.0997,-0.1041,-0.1088,-0.1127,-0.113,-0.1138,-0.1118,-0.1075,-0.0955,-0.0832,-0.0436,-0.0087,0.0238,0.0655,0.0821,0.0854,0.0904,0.095,0.0976,0.0692,0.0686,0.0852,0.0852,0.0851,0.0851,0.0851,0.0851,-0.097,-0.1013,-0.104,-0.111,-0.1144,-0.1168,-0.1168,-0.113,-0.1039,-0.0819,-0.059,-0.0408,0.0055,0.0702,0.1083,0.1124,0.1254,0.1252,0.1315,0.1122,0.1096,0.1072,0.1077,0.1323,0.1323,0.1587,0.159,0.1592]}],[{"header":{"parameterUnit":"m.s-1","parameterCategory":2,"la1":30.2991,"la2":30.254,"lo1":-89.0895,"lo2":-89.0444,"dy":0.0017,"dx":0.0017,"nx":28,"ny":28,"refTime":"2025-01-15T09:00:00:Z","depth":"2","parameterNumber":2,"parameterNumberName":"U-component_of_CURRENTS"},"data":[0,0,0,0,0,0,0,0,0,0,0,0,0,0,0,0,0,0,0,0,0,0,0,0,0,0,0,0,0,0,0,0,0,0,0,0,0,0,0,0,0,0,0,0,0,0,0,0,0,0,0,0,0,0,0,0,0,0,-0.2213,-0.2213,0,-0.2189,-0.2188,-0.2187,-0.214,-0.214,-0.214,-0.214,-0.2132,-0.2132,-0.2131,0,0,0,0,0,0,0,0,0,0,0,0,0,-0.215,-0.2151,-0.2213,-0.2213,-0.2214,-0.2189,-0.2188,-0.2186,-0.214,-0.214,-0.214,-0.214,-0.2132,-0.2132,-0.2131,0,0,0,0,0,0,0,0,0,0,0,0,0,-0.2146,-0.2151,-0.2212,-0.2196,-0.2196,-0.2189,-0.2188,-0.2186,-0.214,-0.214,-0.214,-0.214,-0.2132,-0.2132,-0.2131,-0.2124,0,0,-0.213,-0.2129,0,0,0,0,0,0,0,0,-0.2146,-0.2147,-0.2198,-0.2198,-0.2197,-0.2178,-0.2163,-0.217,-0.214,-0.2149,-0.214,-0.214,-0.2156,-0.2154,-0.2132,-0.2123,-0.2123,-0.213,-0.2129,-0.2129,-0.2129,0,0,0,0,0,0,0,-0.2147,-0.2148,-0.2191,-0.2199,-0.2198,-0.2168,-0.2167,-0.2163,-0.2143,-0.2148,-0.2147,-0.2163,-0.2154,-0.2132,-0.2132,-0.2123,-0.213,-0.2129,-0.2129,-0.2129,-0.2138,-0.2139,0,0,0,0,0,0,-0.2177,-0.2148,-0.2192,-0.2192,-0.2185,-0.217,-0.2169,-0.2174,-0.2142,-0.2141,-0.2163,-0.2161,-0.2133,-0.2132,-0.2131,-0.2142,-0.2129,-0.2129,-0.2128,-0.2138,-0.2138,-0.2139,0,0,0,0,0,0,-0.2175,-0.218,-0.2194,-0.2179,-0.218,-0.2173,-0.2178,-0.2174,-0.2171,-0.2156,-0.2152,-0.2169,-0.2133,-0.2132,-0.2154,-0.2141,-0.2128,-0.2128,-0.2137,-0.2138,-0.2139,-0.215,0,0,0,0,0,0,-0.2173,-0.2179,-0.2184,-0.2181,-0.2183,-0.2201,-0.2179,-0.2174,-0.2185,-0.2182,-0.216,-0.2158,-0.2133,-0.2155,-0.2154,-0.214,-0.2127,-0.2136,-0.2137,-0.2138,-0.2149,-0.2152,-0.2154,0,0,0,0,0,-0.2171,-0.2178,-0.2184,-0.219,-0.2192,-0.2203,-0.2199,-0.2186,-0.2186,-0.2183,-0.2183,-0.2159,-0.216,-0.2156,-0.2154,-0.214,-0.2136,-0.2137,-0.2138,-0.2148,-0.2151,-0.2154,0,0,0,0,0,0,-0.2156,-0.2175,-0.2181,-0.2195,-0.2209,-0.22,-0.2197,-0.2202,-0.2195,-0.2194,-0.2178,-0.2177,-0.2186,-0.2173,-0.217,-0.2147,-0.2139,-0.214,-0.2147,-0.215,-0.2152,-0.2143,-0.2127,0,0,0,0,0,-0.216,-0.2165,-0.2188,-0.2199,-0.2207,-0.2207,-0.221,-0.2209,-0.2212,-0.2207,-0.2204,-0.2195,-0.2184,-0.218,-0.2172,-0.217,-0.2155,-0.2157,-0.2159,-0.216,-0.2154,-0.2142,-0.2142,-0.2143,-0.2143,-0.2143,0,0,-0.2151,-0.2172,-0.217,-0.2197,-0.2197,-0.2201,-0.2205,-0.2216,-0.2215,-0.2211,-0.221,-0.2211,-0.219,-0.2181,-0.2181,-0.2171,-0.2153,-0.2162,-0.2163,-0.2155,-0.2143,-0.2143,-0.2143,-0.2144,-0.2144,-0.2144,0,0,-0.2142,-0.2163,-0.216,-0.2177,-0.2204,-0.2205,-0.222,-0.223,-0.2226,-0.2241,-0.223,-0.2237,-0.2226,-0.2202,-0.2188,-0.2202,-0.2172,-0.2196,-0.2189,-0.2178,-0.2178,-0.2177,-0.2157,-0.2154,-0.2188,-0.2188,-0.2188,0,-0.2133,-0.2141,-0.2162,-0.2175,-0.2186,-0.2213,-0.2214,-0.2214,-0.2234,-0.2236,-0.2246,-0.2236,-0.2227,-0.2202,-0.22,-0.2203,-0.2192,-0.2178,-0.218,-0.2179,-0.2178,-0.2157,-0.2154,-0.2189,-0.2189,-0.2189,-0.2189,0,-0.2123,-0.2132,-0.2137,-0.2155,-0.2169,-0.2179,-0.22,-0.2214,-0.2228,-0.2232,-0.2239,-0.2235,-0.2225,-0.222,-0.221,-0.2193,-0.2186,-0.219,-0.217,-0.2178,-0.2156,-0.2153,-0.219,-0.219,-0.219,-0.2189,0,0,-0.2087,-0.2118,-0.2122,-0.2122,-0.2161,-0.2167,-0.2181,-0.2192,-0.2197,-0.2218,-0.2217,-0.2206,-0.2218,-0.2204,-0.2198,-0.2186,-0.2171,-0.2183,-0.2182,-0.2156,-0.214,-0.2068,-0.2057,-0.2176,-0.2176,-0.2175,-0.2126,0,-0.2068,-0.2074,-0.2103,-0.2102,-0.2097,-0.2137,-0.2146,-0.2166,-0.2184,-0.2196,-0.2199,-0.2198,-0.2205,-0.2202,-0.2194,-0.2184,-0.2163,-0.2183,-0.2141,-0.2139,-0.2069,-0.2051,-0.19,-0.1838,-0.2123,-0.2122,-0.2122,0,-0.204,-0.205,-0.2043,-0.2064,-0.2068,-0.2077,-0.2099,-0.2113,-0.2142,-0.2159,-0.2172,-0.2185,-0.2176,-0.2184,-0.216,-0.2175,-0.2152,-0.2143,-0.2141,-0.2064,-0.206,-0.1877,-0.182,-0.2116,-0.2116,-0.2117,-0.2117,0,-0.1978,-0.2004,-0.1993,-0.2003,-0.2035,-0.2041,-0.2061,-0.2095,-0.2107,-0.2135,-0.2148,-0.2156,-0.2153,-0.2144,-0.2131,-0.2145,-0.21,-0.2116,-0.2026,-0.2021,-0.1877,-0.1859,-0.2083,-0.2083,-0.2083,-0.2084,-0.2084,0,-0.1931,-0.1921,-0.1963,-0.1955,-0.1951,-0.1994,-0.1997,-0.2026,-0.2065,-0.2069,-0.212,-0.2119,-0.2143,-0.213,-0.212,-0.2054,-0.2088,-0.201,-0.1998,-0.1877,-0.1861,-0.2094,-0.2096,-0.2082,-0.2082,-0.2083,-0.2083,0,-0.1843,-0.1875,-0.1863,-0.1902,-0.1913,-0.1908,-0.1957,-0.196,-0.2015,-0.2023,-0.2031,-0.2081,-0.2063,-0.2072,-0.2048,-0.202,-0.198,-0.1945,-0.1797,-0.1767,-0.1912,-0.1916,-0.1839,-0.1836,-0.1834,-0.1831,-0.183,0,-0.1789,-0.1774,-0.1812,-0.1809,-0.1822,-0.1836,-0.1843,-0.1914,-0.1924,-0.1988,-0.1977,-0.1989,-0.1964,-0.1915,-0.1867,-0.1813,-0.1892,-0.1645,-0.164,-0.1888,-0.1885,-0.1892,-0.1899,-0.1456,-0.1451,-0.1447,-0.1444,0,-0.1684,-0.1708,-0.1706,-0.1705,-0.1711,-0.1724,-0.1745,-0.1753,-0.1828,-0.1843,-0.1851,-0.1843,-0.1804,-0.1681,-0.1622,-0.1578,-0.1647,-0.1563,-0.1845,-0.1547,-0.1524,-0.1522,-0.1541,-0.141,-0.1413,-0.1416,-0.1417,-0.1419,-0.1606,-0.1585,-0.1594,-0.1582,-0.1596,-0.1593,-0.1562,-0.1602,-0.1605,-0.1601,-0.1673,-0.1613,-0.1595,-0.1427,-0.1349,-0.1295,-0.1416,-0.1358,-0.1371,-0.1388,-0.1357,-0.1332,-0.1175,-0.1177,-0.1179,-0.118,-0.1182,0,-0.1492,-0.1482,-0.1468,-0.1453,-0.1423,-0.1473,-0.1474,-0.1428,-0.1388,-0.1415,-0.1399,-0.1251,-0.1161,-0.1159,-0.1018,-0.0987,-0.099,-0.0948,-0.0954,-0.0988,-0.1018,-0.0971,-0.0685,-0.0684,-0.0683,-0.0681,0,0,-0.1429,-0.1374,-0.1368,-0.1281,-0.1272,-0.1196,-0.1173,-0.113,-0.112,-0.1056,-0.1028,-0.1103,-0.1125,-0.0912,-0.0852,-0.0748,-0.0864,-0.0706,-0.1102,-0.1143,-0.1172,-0.1247,-0.1211,0,0,0,0,0]},{"header":{"parameterUnit":"m.s-1","parameterCategory":2,"la1":30.2991,"la2":30.254,"lo1":-89.0895,"lo2":-89.0444,"dy":0.0017,"dx":0.0017,"nx":28,"ny":28,"refTime":"2025-01-15T09:00:00:Z","depth":"2","parameterNumber":3,"parameterNumberName":"V-component_of_CURRENTS"},"data":[0,0,0,0,0,0,0,0,0,0,0,0,0,0,0,0,0,0,0,0,0,0,0,0,0,0,0,0,0,0,0,0,0,0,0,0,0,0,0,0,0,0,0,0,0,0,0,0,0,0,0,0,0,0,0,0,0,0,-0.035,-0.035,0,-0.0257,-0.0256,-0.0255,-0.0198,-0.0198,-0.0198,-0.0198,-0.0094,-0.0091,-0.0088,0,0,0,0,0,0,0,0,0,0,0,0,0,-0.0397,-0.0397,-0.035,-0.035,-0.0349,-0.0257,-0.0256,-0.0254,-0.0198,-0.0198,-0.0198,-0.0198,-0.0095,-0.0092,-0.0088,0,0,0,0,0,0,0,0,0,0,0,0,0,-0.0345,-0.0397,-0.0351,-0.0312,-0.0308,-0.0258,-0.0256,-0.0254,-0.0198,-0.0198,-0.0198,-0.0198,-0.0096,-0.0092,-0.0088,-0.0062,0,0,-0.0075,-0.0073,0,0,0,0,0,0,0,0,-0.0348,-0.0343,-0.0318,-0.0314,-0.031,-0.0242,-0.0234,-0.019,-0.0198,-0.0237,-0.0198,-0.0198,-0.0144,-0.0136,-0.0115,-0.0058,-0.0053,-0.0075,-0.0072,-0.007,-0.0069,0,0,0,0,0,0,0,-0.0352,-0.0346,-0.0311,-0.0318,-0.0312,-0.0271,-0.0264,-0.0225,-0.0189,-0.0233,-0.023,-0.0224,-0.0141,-0.0119,-0.0112,-0.0051,-0.0075,-0.0071,-0.0069,-0.0067,0.0038,0.0039,0,0,0,0,0,0,-0.0374,-0.035,-0.0314,-0.0308,-0.0332,-0.027,-0.0262,-0.0261,-0.019,-0.018,-0.0224,-0.0222,-0.0126,-0.0117,-0.0108,-0.0076,-0.007,-0.0067,-0.0064,0.0038,0.0038,0.0039,0,0,0,0,0,0,-0.0375,-0.0371,-0.0317,-0.0329,-0.032,-0.0271,-0.0269,-0.026,-0.0242,-0.0183,-0.0173,-0.0217,-0.0126,-0.0114,-0.0073,-0.0072,-0.0065,-0.0061,0.0038,0.0038,0.0038,-0.0011,0,0,0,0,0,0,-0.0377,-0.0373,-0.0379,-0.0331,-0.032,-0.0296,-0.0269,-0.0258,-0.0239,-0.0235,-0.0174,-0.0164,-0.0125,-0.0079,-0.0068,-0.0066,-0.0058,0.0037,0.0038,0.0038,-0.001,-0.0012,-0.0015,0,0,0,0,0,-0.0379,-0.0387,-0.038,-0.0375,-0.033,-0.0297,-0.0287,-0.025,-0.0239,-0.0233,-0.0188,-0.0166,-0.0068,-0.0075,-0.0063,-0.0059,0.0037,0.0038,0.0038,-0.0009,-0.0012,-0.0015,0,0,0,0,0,0,-0.041,-0.0381,-0.0372,-0.0372,-0.0342,-0.0289,-0.0279,-0.0257,-0.0216,-0.0212,-0.0159,-0.0145,-0.0109,-0.0077,-0.0086,-0.0027,-0.0013,-0.001,-0.0053,-0.0055,-0.0058,-0.0072,-0.0054,0,0,0,0,0,-0.0423,-0.0422,-0.0386,-0.0387,-0.0374,-0.033,-0.0312,-0.0289,-0.0247,-0.0229,-0.0187,-0.0139,-0.0095,-0.0072,-0.0029,0.0004,0.0033,0.0014,0.0012,0.0009,0.0007,0.0049,0.005,0.0041,0.0041,0.0041,0,0,-0.0433,-0.042,-0.0418,-0.0394,-0.0366,-0.0349,-0.0318,-0.0297,-0.028,-0.0225,-0.0189,-0.0147,-0.0089,-0.0049,-0.0031,-0.0023,0.0028,0.001,0.0008,0.0006,0.005,0.005,0.0051,0.0041,0.0041,0.0041,0,0,-0.0453,-0.0444,-0.0447,-0.0428,-0.04,-0.0369,-0.037,-0.0322,-0.0297,-0.0261,-0.0215,-0.0174,-0.011,-0.0065,-0.0034,-0.0024,0.0012,-0.0013,-0.0033,0.0007,0.0008,0.0009,0.0047,0.0052,-0.0013,-0.0013,-0.0013,0,-0.0468,-0.0469,-0.0442,-0.044,-0.0427,-0.0384,-0.0379,-0.0345,-0.0291,-0.027,-0.0259,-0.016,-0.0116,-0.0059,-0.0054,-0.003,-0.0003,-0.003,0.0003,0.0005,0.0007,0.0045,0.0051,-0.0015,-0.0015,-0.0014,-0.0014,0,-0.0486,-0.0486,-0.0485,-0.0469,-0.0451,-0.0441,-0.0397,-0.0375,-0.0346,-0.0308,-0.0256,-0.0191,-0.0133,-0.0113,-0.0079,-0.0039,-0.0023,-0.0009,0.0005,0.0004,0.0045,0.0052,-0.0018,-0.0017,-0.0017,-0.0016,0,0,-0.0521,-0.0502,-0.0504,-0.0501,-0.0468,-0.0454,-0.0429,-0.0389,-0.0373,-0.0318,-0.0288,-0.0212,-0.0181,-0.0144,-0.0096,-0.0058,-0.0021,-0.0033,-0.003,-0.0005,0.0068,0.0085,0.0095,-0.0003,-0.0002,-0.0001,0.009,0,-0.0542,-0.0552,-0.0532,-0.053,-0.0526,-0.0486,-0.0467,-0.0427,-0.0385,-0.0345,-0.0275,-0.0228,-0.019,-0.0165,-0.0121,-0.0045,-0.0004,-0.0047,0.0073,0.0076,0.0085,0.0103,0.0087,0.0167,0.0097,0.0098,0.0099,0,-0.0566,-0.0569,-0.0577,-0.0561,-0.0556,-0.0549,-0.0516,-0.0492,-0.0425,-0.0393,-0.0334,-0.0277,-0.0204,-0.018,-0.0054,-0.0084,-0.0015,0.0041,0.0046,0.0084,0.0107,0.0159,0.0183,0.0111,0.011,0.0109,0.0108,0,-0.0602,-0.0599,-0.0609,-0.0604,-0.0579,-0.0576,-0.0561,-0.0509,-0.049,-0.0422,-0.04,-0.0305,-0.0259,-0.0162,-0.0043,-0.0048,0.009,0.01,0.0184,0.0186,0.0208,0.021,0.0185,0.0185,0.0185,0.0184,0.0184,0,-0.0628,-0.0636,-0.0631,-0.0635,-0.0649,-0.0617,-0.0617,-0.0586,-0.0541,-0.0518,-0.0431,-0.0388,-0.0254,-0.0156,-0.0051,0.009,0.0089,0.0186,0.0214,0.0191,0.019,0.0169,0.0165,0.0188,0.0187,0.0186,0.0186,0,-0.0655,-0.0653,-0.0668,-0.0663,-0.0666,-0.0677,-0.0665,-0.066,-0.0612,-0.0581,-0.0562,-0.0446,-0.0315,-0.0174,-0.001,0.0079,0.0212,0.0261,0.0224,0.0245,0.0282,0.0275,0.0364,0.0366,0.0367,0.0368,0.0369,0,-0.0666,-0.0677,-0.0699,-0.0718,-0.0718,-0.073,-0.0737,-0.0702,-0.069,-0.0611,-0.0595,-0.0468,-0.0361,-0.0112,0.0063,0.0254,0.0253,0.0343,0.0332,0.0284,0.0302,0.0293,0.0285,0.0345,0.0345,0.0346,0.0346,0,-0.0685,-0.0698,-0.0714,-0.0756,-0.0779,-0.0799,-0.0802,-0.0804,-0.0755,-0.0712,-0.0626,-0.0535,-0.0298,-0.0088,0.0149,0.0259,0.031,0.0359,0.0333,0.0294,0.0271,0.0286,0.0278,0.0351,0.035,0.035,0.035,0.0349,-0.07,-0.0726,-0.0754,-0.0791,-0.0825,-0.0853,-0.0859,-0.0846,-0.0821,-0.0737,-0.0652,-0.0489,-0.0298,0.0051,0.0216,0.0372,0.0368,0.0413,0.041,0.0406,0.038,0.036,0.0451,0.0451,0.0451,0.0452,0.0452,0,-0.0709,-0.0741,-0.0782,-0.0828,-0.0867,-0.0875,-0.0888,-0.0868,-0.0831,-0.0733,-0.0624,-0.039,-0.0153,0.0049,0.0298,0.0439,0.0427,0.0462,0.0418,0.0413,0.0409,0.0381,0.0454,0.0454,0.0454,0.0454,0,0,-0.0715,-0.0752,-0.0776,-0.0843,-0.0879,-0.0905,-0.0908,-0.087,-0.0793,-0.0681,-0.0553,-0.0383,-0.0139,0.0036,0.0213,0.0341,0.0339,0.0354,0.034,0.0262,0.0256,0.0371,0.0322,0,0,0,0,0]}],[{"header":{"parameterUnit":"m.s-1","parameterCategory":2,"la1":30.2991,"la2":30.254,"lo1":-89.0895,"lo2":-89.0444,"dy":0.0017,"dx":0.0017,"nx":28,"ny":28,"refTime":"2025-01-15T09:00:00:Z","depth":"4","parameterNumber":2,"parameterNumberName":"U-component_of_CURRENTS"},"data":[0,0,0,0,0,0,0,0,0,0,0,0,0,0,0,0,0,0,0,0,0,0,0,0,0,0,0,0,0,0,0,0,0,0,0,0,0,0,0,0,0,0,0,0,0,0,0,0,0,0,0,0,0,0,0,0,0,0,-0.1322,-0.1322,0,-0.136,-0.136,-0.136,-0.1377,-0.1377,-0.1377,-0.1378,-0.1428,-0.1429,-0.143,0,0,0,0,0,0,0,0,0,0,0,0,0,-0.1271,-0.1271,-0.1322,-0.1322,-0.1323,-0.136,-0.136,-0.136,-0.1377,-0.1377,-0.1377,-0.1378,-0.1428,-0.1429,-0.143,0,0,0,0,0,0,0,0,0,0,0,0,0,-0.1296,-0.1271,-0.1322,-0.1338,-0.134,-0.136,-0.136,-0.136,-0.1377,-0.1377,-0.1378,-0.1378,-0.1427,-0.1429,-0.1431,-0.1436,0,0,-0.1436,-0.1437,0,0,0,0,0,0,0,0,-0.1295,-0.1298,-0.1335,-0.1337,-0.1339,-0.1366,-0.1361,-0.1387,-0.1377,-0.136,-0.1378,-0.1378,-0.141,-0.1413,-0.1416,-0.1438,-0.144,-0.1436,-0.1437,-0.1438,-0.1438,0,0,0,0,0,0,0,-0.1293,-0.1297,-0.1334,-0.1336,-0.1338,-0.1346,-0.1349,-0.1365,-0.1381,-0.1362,-0.1364,-0.1372,-0.1411,-0.1414,-0.1417,-0.1441,-0.1436,-0.1438,-0.1439,-0.1439,-0.1533,-0.1534,0,0,0,0,0,0,-0.1293,-0.1295,-0.1333,-0.1335,-0.132,-0.1347,-0.1351,-0.1355,-0.1381,-0.1386,-0.1372,-0.1373,-0.1411,-0.1415,-0.1419,-0.1486,-0.1438,-0.144,-0.1441,-0.1531,-0.1533,-0.1534,0,0,0,0,0,0,-0.1292,-0.1296,-0.1331,-0.1318,-0.1324,-0.1347,-0.1352,-0.1356,-0.1383,-0.1389,-0.1393,-0.1398,-0.1411,-0.1417,-0.1448,-0.1486,-0.144,-0.1442,-0.1529,-0.1532,-0.1534,-0.1582,0,0,0,0,0,0,-0.129,-0.1295,-0.131,-0.1318,-0.1325,-0.1358,-0.1352,-0.1356,-0.1387,-0.1389,-0.1412,-0.1416,-0.1412,-0.1446,-0.145,-0.1488,-0.1443,-0.1528,-0.153,-0.1533,-0.1579,-0.1586,-0.1592,0,0,0,0,0,-0.1288,-0.1301,-0.131,-0.1316,-0.134,-0.1359,-0.1364,-0.1379,-0.1388,-0.1404,-0.1417,-0.1416,-0.1466,-0.1448,-0.1453,-0.1492,-0.1526,-0.153,-0.1533,-0.1576,-0.1585,-0.1592,0,0,0,0,0,0,-0.1289,-0.1304,-0.1315,-0.1333,-0.1354,-0.1364,-0.1383,-0.1395,-0.1418,-0.1428,-0.1429,-0.1433,-0.1479,-0.1477,-0.1457,-0.1527,-0.1499,-0.1503,-0.1531,-0.1539,-0.1545,-0.1534,-0.1445,0,0,0,0,0,-0.1296,-0.1308,-0.1327,-0.1345,-0.1359,-0.1377,-0.1393,-0.1407,-0.1423,-0.1435,-0.1449,-0.1469,-0.1492,-0.1508,-0.1525,-0.156,-0.154,-0.159,-0.1597,-0.1602,-0.1597,-0.1595,-0.1601,-0.1545,-0.1545,-0.1545,0,0,-0.1303,-0.1313,-0.1322,-0.1347,-0.1364,-0.1389,-0.1387,-0.142,-0.1447,-0.1437,-0.1481,-0.1495,-0.1507,-0.1546,-0.1567,-0.1551,-0.1609,-0.1606,-0.1611,-0.1603,-0.1599,-0.1604,-0.1609,-0.1547,-0.1547,-0.1546,0,0,-0.1312,-0.1332,-0.1346,-0.1366,-0.14,-0.1414,-0.1431,-0.1458,-0.148,-0.1519,-0.1523,-0.1553,-0.1589,-0.16,-0.161,-0.1663,-0.1644,-0.1683,-0.1707,-0.1706,-0.171,-0.1713,-0.1696,-0.1697,-0.1685,-0.1685,-0.1685,0,-0.1324,-0.134,-0.1355,-0.1375,-0.1398,-0.1429,-0.1456,-0.1483,-0.1519,-0.1537,-0.1543,-0.1597,-0.1612,-0.165,-0.1671,-0.1678,-0.1667,-0.1676,-0.1713,-0.1716,-0.1718,-0.1699,-0.17,-0.1688,-0.1688,-0.1687,-0.1687,0,-0.1334,-0.1362,-0.1374,-0.1408,-0.1435,-0.1467,-0.1505,-0.1541,-0.1574,-0.1593,-0.1646,-0.1661,-0.1686,-0.171,-0.1708,-0.1745,-0.1727,-0.1721,-0.1689,-0.1726,-0.1704,-0.1704,-0.1692,-0.1691,-0.169,-0.169,0,0,-0.1323,-0.1372,-0.1381,-0.1402,-0.1459,-0.1477,-0.1535,-0.1581,-0.1611,-0.1657,-0.1686,-0.1739,-0.1744,-0.1756,-0.1766,-0.1772,-0.1786,-0.1759,-0.1758,-0.1733,-0.1773,-0.165,-0.1638,-0.1788,-0.1788,-0.1788,-0.175,0,-0.1332,-0.1366,-0.1396,-0.1445,-0.1468,-0.1518,-0.156,-0.1609,-0.165,-0.1685,-0.1719,-0.1752,-0.1764,-0.178,-0.1792,-0.179,-0.1788,-0.1796,-0.1747,-0.1745,-0.1624,-0.1634,-0.1789,-0.175,-0.175,-0.175,-0.1749,0,-0.1331,-0.1355,-0.1398,-0.1456,-0.1472,-0.151,-0.1577,-0.1618,-0.1678,-0.1708,-0.1748,-0.1768,-0.1802,-0.1798,-0.1808,-0.1814,-0.1797,-0.1788,-0.1786,-0.165,-0.1621,-0.1705,-0.1749,-0.1749,-0.1749,-0.1749,-0.1749,0,-0.1294,-0.1358,-0.1391,-0.1412,-0.1481,-0.1516,-0.156,-0.1625,-0.1655,-0.1718,-0.1738,-0.1782,-0.1796,-0.1799,-0.1793,-0.1803,-0.1779,-0.1787,-0.1656,-0.1647,-0.1749,-0.1745,-0.1776,-0.1776,-0.1776,-0.1776,-0.1776,0,-0.1274,-0.1305,-0.1379,-0.1392,-0.1433,-0.1495,-0.1542,-0.159,-0.1652,-0.1669,-0.174,-0.1747,-0.1798,-0.1793,-0.1787,-0.1709,-0.1773,-0.1649,-0.1626,-0.1771,-0.1771,-0.1748,-0.1745,-0.1775,-0.1775,-0.1775,-0.1775,0,-0.1217,-0.1271,-0.1308,-0.1386,-0.1413,-0.1439,-0.1519,-0.154,-0.1617,-0.164,-0.1659,-0.1721,-0.1711,-0.1733,-0.1724,-0.1677,-0.1633,-0.1587,-0.1728,-0.1716,-0.1505,-0.1506,-0.1437,-0.1432,-0.1428,-0.1424,-0.1422,0,-0.1182,-0.1197,-0.1281,-0.1299,-0.1336,-0.1389,-0.1416,-0.1507,-0.1524,-0.1602,-0.1592,-0.1619,-0.1642,-0.1527,-0.1573,-0.1531,-0.1517,-0.1484,-0.1507,-0.1483,-0.1469,-0.1476,-0.1482,-0.1415,-0.1414,-0.1413,-0.1412,0,-0.1109,-0.1153,-0.1178,-0.1215,-0.1251,-0.1283,-0.1332,-0.1333,-0.142,-0.1504,-0.1475,-0.1464,-0.1441,-0.1435,-0.1403,-0.1383,-0.1505,-0.1442,-0.1451,-0.1472,-0.1457,-0.1448,-0.1459,-0.1398,-0.14,-0.1401,-0.1402,0,-0.105,-0.1047,-0.1088,-0.1108,-0.1154,-0.1156,-0.12,-0.1212,-0.1242,-0.1335,-0.1317,-0.1355,-0.1413,-0.1354,-0.1332,-0.1294,-0.1283,-0.1248,-0.1267,-0.1283,-0.1251,-0.1211,-0.1043,0,0,0,0,0,-0.098,-0.0964,-0.0975,-0.099,-0.1033,-0.1058,-0.1128,-0.1177,-0.1263,-0.1199,-0.1255,-0.1229,-0.1195,-0.1223,-0.115,-0.1266,-0.129,-0.1177,-0.1262,-0.1321,-0.1337,-0.1315,0,0,0,0,0,0,-0.093,-0.0936,-0.0934,-0.0889,-0.0879,-0.091,-0.0951,-0.1014,-0.0991,-0.1084,-0.1071,-0.1143,-0.1129,-0.1206,-0.1119,-0.1125,-0.1151,-0.121,-0.1206,-0.1312,-0.1326,-0.1339,-0.1322,0,0,0,0,0]},{"header":{"parameterUnit":"m.s-1","parameterCategory":2,"la1":30.2991,"la2":30.254,"lo1":-89.0895,"lo2":-89.0444,"dy":0.0017,"dx":0.0017,"nx":28,"ny":28,"refTime":"2025-01-15T09:00:00:Z","depth":"4","parameterNumber":3,"parameterNumberName":"V-component_of_CURRENTS"},"data":[0,0,0,0,0,0,0,0,0,0,0,0,0,0,0,0,0,0,0,0,0,0,0,0,0,0,0,0,0,0,0,0,0,0,0,0,0,0,0,0,0,0,0,0,0,0,0,0,0,0,0,0,0,0,0,0,0,0,-0.0179,-0.0179,0,-0.0136,-0.0135,-0.0134,-0.0096,-0.0096,-0.0096,-0.0095,-0.0023,-0.0022,-0.002,0,0,0,0,0,0,0,0,0,0,0,0,0,-0.0181,-0.0181,-0.0179,-0.0179,-0.0178,-0.0136,-0.0135,-0.0134,-0.0096,-0.0096,-0.0096,-0.0095,-0.0024,-0.0022,-0.002,0,0,0,0,0,0,0,0,0,0,0,0,0,-0.0162,-0.0181,-0.0179,-0.0155,-0.0153,-0.0136,-0.0135,-0.0134,-0.0096,-0.0096,-0.0095,-0.0095,-0.0025,-0.0022,-0.002,-0.0014,0,0,-0.0012,-0.0011,0,0,0,0,0,0,0,0,-0.0163,-0.0162,-0.0159,-0.0157,-0.0154,-0.0122,-0.0109,-0.0093,-0.0097,-0.0116,-0.0095,-0.0095,-0.0055,-0.005,-0.0041,-0.0011,-0.0008,-0.0012,-0.0011,-0.001,-0.0009,0,0,0,0,0,0,0,-0.0164,-0.0163,-0.016,-0.0159,-0.0156,-0.013,-0.0127,-0.0106,-0.0087,-0.0115,-0.0112,-0.011,-0.0053,-0.0044,-0.0039,-0.0007,-0.0012,-0.001,-0.0008,-0.0008,0.0055,0.0056,0,0,0,0,0,0,-0.0176,-0.0165,-0.0162,-0.0159,-0.0159,-0.0131,-0.0127,-0.0132,-0.0088,-0.0082,-0.011,-0.0108,-0.0048,-0.0042,-0.0037,-0.0015,-0.001,-0.0007,-0.0006,0.0055,0.0055,0.0056,0,0,0,0,0,0,-0.0176,-0.0176,-0.0164,-0.0161,-0.0158,-0.0132,-0.0136,-0.0131,-0.0123,-0.0085,-0.0078,-0.0108,-0.0048,-0.004,-0.0016,-0.0013,-0.0006,-0.0004,0.0055,0.0055,0.0056,0.002,0,0,0,0,0,0,-0.0176,-0.0177,-0.0185,-0.0163,-0.0159,-0.0158,-0.0137,-0.0131,-0.0123,-0.012,-0.0081,-0.0073,-0.0047,-0.002,-0.0013,-0.0009,-0.0002,0.0055,0.0055,0.0055,0.0021,0.0019,0.0017,0,0,0,0,0,-0.0177,-0.019,-0.0186,-0.0185,-0.0171,-0.0159,-0.0155,-0.0133,-0.0123,-0.0123,-0.0093,-0.0075,-0.0012,-0.0018,-0.001,-0.0005,0.0054,0.0055,0.0055,0.0021,0.0019,0.0017,0,0,0,0,0,0,-0.0195,-0.0186,-0.0182,-0.0192,-0.0179,-0.0153,-0.0152,-0.0138,-0.0115,-0.0112,-0.0074,-0.0065,-0.0042,-0.002,-0.0027,0.0015,0.0025,0.0027,-0.0003,-0.0005,-0.0007,-0.0016,-0.0,0,0,0,0,0,-0.0204,-0.0212,-0.0197,-0.0206,-0.0202,-0.0179,-0.0172,-0.0159,-0.0136,-0.0125,-0.0098,-0.0065,-0.0035,-0.0018,0.0009,0.0028,0.0052,0.0038,0.0036,0.0034,0.0032,0.0069,0.007,0.0057,0.0057,0.0057,0,0,-0.0213,-0.0211,-0.0215,-0.021,-0.0199,-0.0195,-0.0173,-0.0168,-0.0161,-0.0121,-0.0104,-0.0074,-0.0032,-0.0007,0.0006,0.0013,0.005,0.0035,0.0033,0.0032,0.007,0.0071,0.0072,0.0057,0.0057,0.0057,0,0,-0.0233,-0.0234,-0.0245,-0.0238,-0.0227,-0.0213,-0.0214,-0.0192,-0.0177,-0.016,-0.0125,-0.0094,-0.0056,-0.0019,0.0004,0.0008,0.0037,0.0016,0.0003,0.0039,0.004,0.0041,0.007,0.0074,0.0018,0.0018,0.0018,0,-0.0245,-0.0257,-0.0245,-0.025,-0.0247,-0.0224,-0.0229,-0.021,-0.0182,-0.0169,-0.016,-0.0091,-0.0059,-0.0015,-0.0011,0.0004,0.0025,0.0006,0.0036,0.0038,0.004,0.0068,0.0074,0.0016,0.0016,0.0017,0.0017,0,-0.0267,-0.0276,-0.0282,-0.0281,-0.0275,-0.0277,-0.0253,-0.0244,-0.0226,-0.0202,-0.0164,-0.0117,-0.0075,-0.0057,-0.0032,0.0003,0.0013,0.0026,0.0038,0.0039,0.0069,0.0075,0.0014,0.0014,0.0015,0.0015,0,0,-0.0294,-0.0298,-0.03,-0.0305,-0.0293,-0.0291,-0.028,-0.026,-0.0251,-0.0215,-0.0194,-0.0135,-0.011,-0.0082,-0.0043,-0.0008,0.0025,0.0011,0.0013,0.0033,0.0098,0.0084,0.009,0.0041,0.0042,0.0042,0.0112,0,-0.0315,-0.0336,-0.0328,-0.0342,-0.0349,-0.0326,-0.0319,-0.0296,-0.0269,-0.0243,-0.0184,-0.0151,-0.0118,-0.0099,-0.0058,0.0004,0.0039,0.0004,0.0099,0.0102,0.0085,0.0096,0.0045,0.0116,0.0118,0.0119,0.012,0,-0.0338,-0.0349,-0.037,-0.0374,-0.0375,-0.038,-0.0365,-0.0354,-0.0308,-0.0285,-0.0238,-0.0193,-0.013,-0.0109,-0.0002,-0.0027,0.0029,0.0077,0.0082,0.0085,0.0099,0.0118,0.0131,0.013,0.0129,0.0128,0.0128,0,-0.0362,-0.0378,-0.0398,-0.04,-0.0399,-0.0404,-0.0402,-0.037,-0.036,-0.0311,-0.0297,-0.0216,-0.0179,-0.0095,0.0003,0.0001,0.0115,0.0127,0.0171,0.017,0.0177,0.0175,0.0199,0.0199,0.0199,0.0199,0.0198,0,-0.0383,-0.0401,-0.0416,-0.0426,-0.0451,-0.0438,-0.045,-0.0432,-0.0405,-0.0391,-0.0323,-0.029,-0.0176,-0.0095,-0.0006,0.0098,0.0111,0.017,0.0189,0.016,0.0156,0.0181,0.0178,0.0201,0.0201,0.02,0.02,0,-0.0399,-0.0411,-0.0438,-0.0454,-0.0464,-0.0482,-0.0492,-0.0493,-0.0465,-0.0445,-0.0432,-0.0343,-0.0238,-0.0121,0.0018,0.008,0.0185,0.0219,0.0175,0.019,0.022,0.0214,0.0274,0.0275,0.0275,0.0275,0.0275,0,-0.0406,-0.0423,-0.0463,-0.0487,-0.0498,-0.0524,-0.0539,-0.0526,-0.0521,-0.0472,-0.0459,-0.0365,-0.0293,-0.0102,0.0013,0.0178,0.02,0.0246,0.0239,0.0215,0.0228,0.0223,0.0217,0.0275,0.0275,0.0275,0.0275,0,-0.0416,-0.0436,-0.0459,-0.0509,-0.0541,-0.057,-0.0588,-0.0589,-0.0564,-0.0545,-0.0465,-0.0364,-0.0249,-0.0102,0.002,0.014,0.0211,0.0247,0.0248,0.0242,0.0217,0.0228,0.0223,0.0275,0.0275,0.0275,0.0275,0,-0.0422,-0.0445,-0.048,-0.052,-0.0568,-0.0597,-0.0606,-0.059,-0.0579,-0.052,-0.0496,-0.0364,-0.0289,-0.0122,-0.0005,0.0105,0.0133,0.0163,0.0169,0.017,0.0115,0.0067,0.0097,0,0,0,0,0,-0.042,-0.0445,-0.0486,-0.0532,-0.058,-0.0602,-0.0626,-0.0625,-0.0608,-0.0553,-0.052,-0.0406,-0.0228,-0.0147,-0.0038,-0.0011,0.0141,0.0118,0.0175,0.0277,0.0277,0.0229,0,0,0,0,0,0,-0.042,-0.0459,-0.048,-0.053,-0.0561,-0.0607,-0.0623,-0.0614,-0.0572,-0.054,-0.0438,-0.0387,-0.0208,-0.0285,-0.0035,-0.0004,0.0045,0.0203,0.0205,0.0278,0.0277,0.0277,0.0227,0,0,0,0,0]}]]